[[{"header":{"parameterUnit":"m.s-1","parameterCategory":1,"la1":30.2991,"la2":30.254,"lo1":-89.0895,"lo2":-89.0444,"dy":0.0017,"dx":0.0017,"nx":28,"ny":28,"refTime":"2025-08-14T03:00:00:Z","depth":0,"parameterNumber":2,"parameterNumberName":"U-component_of_WINDS"},"data":[0,0,0,0,0,0,0,0,0,0,0,0,0,0,0,0,0,0,0,0,0,0,0,0,0,0,0,0,0,0,0,0,0,0,0,0,0,0,0,0,0,0,0,0,0,0,0,0,0,0,0,0,0,0,0,0,0,0,2.7644,2.7644,0,2.7658,2.7659,2.7659,2.7562,2.7559,2.7556,2.7554,2.7569,2.7572,2.7575,0,0,0,0,0,0,0,0,0,0,0,0,0,2.7533,2.7535,2.7644,2.7644,2.7645,2.7658,2.7659,2.7659,2.7562,2.7559,2.7555,2.7552,2.7568,2.7571,2.7575,0,0,0,0,0,0,0,0,0,0,0,0,0,2.7568,2.7536,2.7644,2.7598,2.7594,2.7658,2.7659,2.7659,2.7563,2.7559,2.7555,2.7551,2.7567,2.7571,2.7575,2.7685,0,0,2.7589,2.7591,0,0,0,0,0,0,0,0,2.7566,2.7572,2.7605,2.7601,2.7597,2.7604,2.7625,2.7668,2.7564,2.7575,2.7553,2.7549,2.7584,2.7587,2.7598,2.7686,2.7686,2.7589,2.7592,2.7594,2.7595,0,0,0,0,0,0,0,2.7563,2.7571,2.765,2.7605,2.7601,2.7576,2.7577,2.7632,2.7602,2.7573,2.7566,2.7569,2.7581,2.7594,2.7598,2.7686,2.7589,2.7593,2.7596,2.7598,2.7861,2.7865,0,0,0,0,0,0,2.7567,2.7569,2.7649,2.765,2.7571,2.7582,2.7582,2.7606,2.7601,2.7597,2.7573,2.7565,2.7589,2.7593,2.7598,2.7723,2.7594,2.7598,2.7601,2.7857,2.7862,2.7867,0,0,0,0,0,0,2.7565,2.7575,2.7649,2.7608,2.7615,2.7588,2.7615,2.7608,2.7621,2.7601,2.7595,2.7592,2.7586,2.7592,2.7663,2.7722,2.76,2.7604,2.7852,2.7858,2.7864,2.7976,0,0,0,0,0,0,2.7562,2.7575,2.7617,2.761,2.7618,2.7714,2.7619,2.7612,2.7629,2.7619,2.7617,2.7613,2.7583,2.7657,2.7668,2.7726,2.7607,2.7846,2.7855,2.7862,2.7967,2.7986,2.8002,0,0,0,0,0,2.7559,2.7649,2.7619,2.763,2.7669,2.7718,2.7723,2.7686,2.7635,2.7676,2.7662,2.7613,2.7715,2.7665,2.7676,2.7737,2.7842,2.7852,2.7862,2.7959,2.7982,2.8002,0,0,0,0,0,0,2.7665,2.7647,2.7614,2.7705,2.7713,2.7701,2.7752,2.7712,2.7736,2.7725,2.7679,2.7679,2.7757,2.7755,2.77,2.7841,2.7769,2.7782,2.784,2.7862,2.7879,2.7876,2.7611,0,0,0,0,0,2.7699,2.7739,2.7722,2.7803,2.7809,2.778,2.78,2.7771,2.7778,2.7781,2.7773,2.7782,2.7815,2.7839,2.7869,2.7967,2.7964,2.8014,2.8032,2.8046,2.8057,2.8105,2.8127,2.7899,2.7899,2.7898,0,0,2.7769,2.7764,2.7793,2.7824,2.7827,2.787,2.7784,2.7834,2.7864,2.7789,2.7855,2.7849,2.7856,2.7941,2.7977,2.7941,2.8119,2.8059,2.807,2.8073,2.8118,2.8139,2.8158,2.7905,2.7904,2.7903,0,0,2.7918,2.792,2.7986,2.7991,2.7996,2.7976,2.7992,2.7986,2.7979,2.8045,2.7988,2.8024,2.8084,2.809,2.8101,2.8251,2.8206,2.8263,2.8352,2.8401,2.8418,2.8434,2.8485,2.8504,2.8274,2.8274,2.8274,0,2.8004,2.8066,2.8025,2.8077,2.8092,2.8025,2.8091,2.8098,2.8114,2.8125,2.8084,2.8155,2.8156,2.8239,2.8275,2.8288,2.8303,2.8261,2.8419,2.8434,2.8448,2.8496,2.8516,2.8281,2.828,2.8279,2.8279,0,2.8171,2.8214,2.8267,2.8282,2.8303,2.8362,2.833,2.8356,2.8325,2.8309,2.8375,2.8373,2.84,2.8418,2.8389,2.8497,2.8474,2.8427,2.8353,2.8477,2.8521,2.854,2.829,2.8288,2.8286,2.8284,0,0,2.8386,2.8377,2.8397,2.8401,2.8402,2.8435,2.8491,2.8516,2.8538,2.8552,2.8595,2.8647,2.8603,2.8615,2.8586,2.8629,2.8744,2.8576,2.8576,2.8605,2.886,2.8893,2.8915,2.8715,2.8719,2.8721,2.8858,0,2.8529,2.8622,2.8587,2.8682,2.8721,2.8658,2.8706,2.8711,2.8698,2.8728,2.8714,2.8749,2.869,2.8697,2.8736,2.8722,2.8794,2.8712,2.8754,2.8756,2.8752,2.8939,2.8975,2.9104,2.8876,2.8879,2.8881,0,2.8708,2.8727,2.8826,2.8817,2.8832,2.8876,2.8895,2.8926,2.893,2.8917,2.8931,2.8892,2.8945,2.8873,2.8944,2.8889,2.8904,2.89,2.8904,2.8904,2.8824,2.8942,2.9145,2.9163,2.8908,2.8906,2.8904,0,2.8851,2.8902,2.8966,2.8973,2.8966,2.8998,2.8996,2.8996,2.9013,2.9031,2.9041,2.9065,2.9078,2.9097,2.9065,2.9016,2.914,2.9066,2.9129,2.913,2.9156,2.9155,2.9362,2.9171,2.9171,2.9171,2.917,0,2.9013,2.9076,2.903,2.907,2.9138,2.9096,2.9164,2.9156,2.9157,2.9193,2.9141,2.9177,2.9134,2.9165,2.9141,2.9202,2.9209,2.9199,2.9191,2.9202,2.9203,2.9209,2.9199,2.9176,2.9175,2.9174,2.9173,0,2.9184,2.9156,2.9222,2.921,2.9208,2.9258,2.9247,2.9283,2.9265,2.9312,2.9321,2.9294,2.9327,2.9298,2.9332,2.9315,2.9395,2.9376,2.9393,2.9387,2.9451,2.9444,2.9667,2.9693,2.9489,2.9491,2.9493,0,2.9287,2.9333,2.9325,2.9345,2.9347,2.9381,2.9397,2.9358,2.9377,2.9385,2.9419,2.9448,2.9469,2.9526,2.9509,2.9534,2.9513,2.959,2.9517,2.9525,2.9511,2.9508,2.9511,2.9604,2.9607,2.9609,2.961,0,2.9473,2.9456,2.9482,2.9503,2.9523,2.9538,2.9548,2.9568,2.9528,2.9552,2.9585,2.9602,2.9634,2.9663,2.9682,2.968,2.9638,2.9634,2.9649,2.9659,2.9666,2.966,2.9431,2.9628,2.9626,2.9625,2.9624,2.9623,2.9611,2.9648,2.9647,2.9677,2.968,2.9691,2.9723,2.9709,2.9736,2.9759,2.9734,2.9774,2.9776,2.9797,2.98,2.983,2.9798,2.9821,2.9826,2.9832,2.984,2.9663,2.9834,2.9833,2.9833,2.9832,2.9832,0,2.9791,2.9787,2.9815,2.983,2.9853,2.9812,2.9821,2.9842,2.9878,2.9883,2.9904,2.9941,2.9969,2.9954,2.9978,3.0005,2.9986,3.0012,3.0008,3.0008,2.9869,2.9852,3.0027,3.0027,3.0027,3.0027,3.0027,3.0027,2.9887,2.9947,2.993,2.999,2.9986,3.0024,3.0032,3.0041,3.0044,3.0088,3.011,3.01,3.0097,3.0119,3.0143,3.0137,3.0147,3.018,3.0168,3.0037,3.0018,3.0,2.9983,3.0183,3.0184,3.0304,3.0305,3.0306]},{"header":{"parameterUnit":"m.s-1","parameterCategory":1,"la1":30.2991,"la2":30.254,"lo1":-89.0895,"lo2":-89.0444,"dy":0.0017,"dx":0.0017,"nx":28,"ny":28,"refTime":"2025-08-14T03:00:00:Z","depth":0,"parameterNumber":3,"parameterNumberName":"V-component_of_WINDS"},"data":[0,0,0,0,0,0,0,0,0,0,0,0,0,0,0,0,0,0,0,0,0,0,0,0,0,0,0,0,0,0,0,0,0,0,0,0,0,0,0,0,0,0,0,0,0,0,0,0,0,0,0,0,0,0,0,0,0,0,1.9779,1.9779,0,1.9767,1.9767,1.9767,1.9725,1.9724,1.9723,1.9722,1.971,1.9711,1.9711,0,0,0,0,0,0,0,0,0,0,0,0,0,1.9765,1.9765,1.9779,1.9779,1.9779,1.9767,1.9767,1.9766,1.9725,1.9724,1.9723,1.9722,1.971,1.9711,1.9711,0,0,0,0,0,0,0,0,0,0,0,0,0,1.9764,1.9765,1.9779,1.9757,1.9754,1.9767,1.9767,1.9766,1.9726,1.9724,1.9723,1.9721,1.971,1.9711,1.9711,1.9744,0,0,1.9714,1.9714,0,0,0,0,0,0,0,0,1.9764,1.9764,1.976,1.9758,1.9756,1.9746,1.9757,1.9759,1.9726,1.9737,1.9722,1.9721,1.9723,1.9723,1.9724,1.9744,1.9743,1.9714,1.9714,1.9715,1.9715,0,0,0,0,0,0,0,1.9764,1.9764,1.9774,1.976,1.9757,1.9747,1.9745,1.9757,1.9738,1.9736,1.9733,1.9732,1.9722,1.9723,1.9723,1.9743,1.9714,1.9715,1.9715,1.9716,1.9787,1.9788,0,0,0,0,0,0,1.9767,1.9765,1.9774,1.9774,1.9756,1.9748,1.9746,1.9751,1.9738,1.9734,1.9733,1.973,1.9722,1.9722,1.9723,1.9758,1.9715,1.9716,1.9716,1.9785,1.9787,1.9789,0,0,0,0,0,0,1.9767,1.9768,1.9775,1.9768,1.9768,1.975,1.9755,1.9751,1.9752,1.9736,1.9732,1.9738,1.9721,1.9721,1.9739,1.9757,1.9716,1.9717,1.9784,1.9786,1.9788,1.9831,0,0,0,0,0,0,1.9767,1.9769,1.9781,1.9769,1.9769,1.9792,1.9756,1.9752,1.9754,1.975,1.9739,1.9736,1.972,1.9738,1.9739,1.9758,1.9717,1.9782,1.9785,1.9787,1.9828,1.9835,1.984,0,0,0,0,0,1.9766,1.9795,1.9782,1.9784,1.9785,1.9793,1.9793,1.9774,1.9756,1.9768,1.9757,1.9736,1.9755,1.974,1.9741,1.976,1.9781,1.9784,1.9787,1.9826,1.9834,1.984,0,0,0,0,0,0,1.9811,1.9793,1.9779,1.9804,1.98,1.9786,1.9801,1.9783,1.9785,1.9781,1.9757,1.9755,1.9775,1.977,1.9753,1.979,1.9764,1.9768,1.9793,1.9801,1.9807,1.9807,1.9718,0,0,0,0,0,1.9823,1.9832,1.9816,1.984,1.9838,1.982,1.9823,1.9809,1.9804,1.9802,1.9792,1.9788,1.9793,1.9797,1.98,1.9827,1.9823,1.9841,1.9847,1.9852,1.9855,1.9867,1.9874,1.9799,1.9799,1.9799,0,0,1.985,1.9841,1.9848,1.9848,1.9844,1.9852,1.9819,1.983,1.9836,1.9804,1.9819,1.9812,1.9805,1.9827,1.9836,1.9823,1.9875,1.9856,1.986,1.9861,1.9871,1.9878,1.9884,1.9801,1.9801,1.98,0,0,1.9902,1.9897,1.9915,1.9911,1.9904,1.9891,1.9895,1.9883,1.9877,1.9892,1.9867,1.9873,1.9882,1.9878,1.9877,1.9925,1.9906,1.9927,1.9959,1.997,1.9976,1.9981,1.9997,2.0003,1.9931,1.9931,1.9931,0,1.9935,1.9948,1.9927,1.9939,1.9939,1.9909,1.9926,1.9923,1.9918,1.9918,1.9904,1.9913,1.9907,1.9926,1.9937,1.9938,1.9941,1.9928,1.9977,1.9982,1.9986,2.0001,2.0007,1.9933,1.9933,1.9933,1.9932,0,1.9988,1.9997,2.0013,2.0007,2.0009,2.0024,2.0004,2.0008,1.9993,1.9982,1.9996,1.9987,1.9988,1.9991,1.9977,2.0008,1.9999,1.9981,1.9955,1.9996,2.0009,2.0015,1.9937,1.9936,1.9935,1.9935,0,0,2.0069,2.005,2.0056,2.0052,2.0041,2.0047,2.006,2.006,2.0063,2.006,2.0069,2.0076,2.0059,2.0058,2.0043,2.0053,2.0089,2.0033,2.0032,2.0042,2.012,2.0133,2.014,2.0076,2.0077,2.0078,2.012,0,2.0117,2.0137,2.0118,2.0142,2.0148,2.012,2.013,2.0124,2.0114,2.0117,2.0105,2.011,2.0087,2.0086,2.0095,2.0083,2.0104,2.008,2.0083,2.0084,2.0085,2.0147,2.0161,2.0201,2.0125,2.0126,2.0127,0,2.0176,2.0174,2.0199,2.0184,2.0186,2.0196,2.0193,2.0197,2.0189,2.0181,2.0178,2.016,2.017,2.0144,2.0157,2.0141,2.0141,2.0135,2.0136,2.0135,2.0107,2.0146,2.0213,2.0218,2.0135,2.0134,2.0133,0,2.023,2.0234,2.0248,2.0246,2.023,2.0237,2.0231,2.0222,2.0222,2.0219,2.0219,2.0218,2.0217,2.0216,2.0197,2.018,2.0211,2.0185,2.0203,2.0203,2.021,2.021,2.0277,2.0213,2.0213,2.0213,2.0213,0,2.0285,2.03,2.0272,2.0281,2.0297,2.0274,2.029,2.0281,2.0272,2.0278,2.0254,2.0259,2.0234,2.0237,2.0222,2.0234,2.0234,2.0227,2.0222,2.0228,2.0229,2.0227,2.0223,2.0214,2.0214,2.0214,2.0213,0,2.0348,2.0329,2.0343,2.0326,2.0322,2.0334,2.0319,2.0326,2.0313,2.0321,2.0321,2.0301,2.0303,2.0284,2.0282,2.0272,2.029,2.0282,2.0293,2.0289,2.0308,2.0306,2.0376,2.0383,2.0316,2.0316,2.0317,0,2.0383,2.0394,2.0378,2.038,2.0374,2.0378,2.0378,2.0355,2.0356,2.0346,2.0354,2.0353,2.0352,2.0356,2.0341,2.0339,2.0329,2.0354,2.0329,2.0334,2.0327,2.0327,2.0327,2.0359,2.036,2.036,2.0361,0,2.0448,2.0438,2.0438,2.0435,2.0435,2.0432,2.0427,2.043,2.0405,2.0406,2.0408,2.0406,2.0404,2.0403,2.0398,2.0391,2.0371,2.0369,2.0372,2.0378,2.0383,2.0379,2.0305,2.0367,2.0366,2.0366,2.0366,2.0365,2.0497,2.0505,2.0494,2.0494,2.0488,2.0483,2.0488,2.0475,2.0476,2.0472,2.0458,2.0461,2.0451,2.0442,2.0436,2.0438,2.0425,2.0432,2.0433,2.0434,2.0437,2.0384,2.0437,2.0437,2.0436,2.0436,2.0436,0,2.0559,2.055,2.0551,2.0544,2.0544,2.0525,2.0518,2.0519,2.0522,2.0514,2.0513,2.0513,2.0512,2.0496,2.0493,2.0497,2.0487,2.0496,2.0495,2.0493,2.0449,2.0445,2.0504,2.0504,2.0504,2.0504,2.0504,2.0504,2.0591,2.0602,2.059,2.0598,2.0588,2.0591,2.0588,2.0583,2.0576,2.0577,2.0576,2.0566,2.0554,2.0549,2.0547,2.0542,2.0541,2.0553,2.0545,2.0503,2.0497,2.0491,2.0487,2.0553,2.0553,2.0589,2.0589,2.059]}]]